Terug naar catalogus

FENGYUN 1C DEB

ActiefSSO
NORAD 31331·DEBRIS·🇨🇳 China

Gelanceerd May 10, 1999 vanaf Taiyuan Satellite Launch Center

Loading…

Volgende Passages (komende 24 uur)

TLE

VersSource: Space-Track

Epoch: Sep 14, 2026, 07:11 UTC

1 31331U 99025BQK 26257.29964056 -.00000003  00000-0  25792-4 0  9992
2 31331  98.8633 280.1431 0054825 137.3169 223.2276 14.00777298677147

Volg FENGYUN 1C DEB in realtime met AllMySat

Download on the App Store